Terminal Aerodrome Forecast
Issued by NWS Louisville, KY

Home | Current Version | Previous Version | Text Only | Print | Product List | Glossary On
Versions: 1 2 3 4 5 6 7 8 9 10 11 12 13 14 15 16 17 18 19
000
FTUS43 KLMK 021720
TAFLEX
TAF
KLEX 021720Z 0218/0318 22007KT P6SM -SHRA VCTS BKN060CB
      TEMPO 0218/0222 3SM -TSRA BKN015CB
     FM030000 32005KT P6SM BKN080
     FM030600 30003KT 4SM BR BKN015
     FM031400 31006KT P6SM BKN025=

USA.gov is the U.S. government's official web portal to all federal, state and local government web resources and services.